Time,TemperatureF,DewpointF,PressureIn,WindDirection,WindDirectionDegrees,WindSpeedMPH,WindSpeedGustMPH,Humidity,HourlyPrecipIn,Conditions,Clouds,dailyrainin,SoftwareType,DateUTC
2013-01-06 14:32:00,33.0,22.0,29.83,ENE,65,0.0,6.0,63,0.00,,,0.00,,2013-01-06 21:32:00,
2013-01-06 14:43:00,33.0,22.0,29.83,ENE,65,0.0,6.0,63,0.00,,,0.00,,2013-01-06 21:43:00,
2013-01-06 14:52:00,32.0,21.0,29.82,ESE,122,3.0,11.0,64,0.00,,,0.00,,2013-01-06 21:52:00,
2013-01-06 15:01:00,32.0,21.0,29.82,ESE,122,3.0,11.0,64,0.00,,,0.00,,2013-01-06 22:01:00,
2013-01-06 15:12:00,32.0,21.0,29.82,ESE,122,3.0,11.0,64,0.00,,,0.00,,2013-01-06 22:12:00,
2013-01-06 15:22:00,32.0,21.0,29.83,East,95,2.0,10.0,64,0.00,,,0.00,,2013-01-06 22:22:00,
2013-01-06 15:32:00,32.0,21.0,29.83,East,95,2.0,10.0,64,0.00,,,0.00,,2013-01-06 22:32:00,
2013-01-06 15:43:00,32.0,21.0,29.83,East,95,2.0,10.0,64,0.00,,,0.00,,2013-01-06 22:43:00,
2013-01-06 15:52:00,32.0,22.0,29.83,NE,55,1.0,10.0,65,0.00,,,0.00,,2013-01-06 22:52:00,
2013-01-06 16:02:00,32.0,22.0,29.83,NE,55,1.0,10.0,65,0.00,,,0.00,,2013-01-06 23:02:00,
2013-01-06 16:12:00,32.0,22.0,29.83,NE,55,1.0,10.0,65,0.00,,,0.00,,2013-01-06 23:12:00,
2013-01-06 16:22:00,32.0,20.0,29.85,ENE,73,2.0,7.0,62,0.00,,,0.00,,2013-01-06 23:22:00,
2013-01-06 16:32:00,32.0,20.0,29.85,ENE,73,2.0,7.0,62,0.00,,,0.00,,2013-01-06 23:32:00,
2013-01-06 16:43:00,32.0,20.0,29.85,ENE,73,2.0,7.0,62,0.00,,,0.00,,2013-01-06 23:43:00,
2013-01-06 16:53:00,31.0,20.0,29.85,NE,36,1.0,9.0,64,0.00,,,0.00,,2013-01-06 23:53:00,
2013-01-06 17:02:00,31.0,20.0,29.85,NE,36,1.0,9.0,64,0.00,,,0.00,,2013-01-07 00:02:00,
2013-01-06 17:12:00,31.0,20.0,29.85,NE,36,1.0,9.0,64,0.00,,,0.00,,2013-01-07 00:12:00,
2013-01-06 17:22:00,30.0,19.0,29.85,NE,40,1.0,10.0,63,0.00,,,0.00,,2013-01-07 00:22:00,
2013-01-06 17:32:00,30.0,19.0,29.85,NE,40,1.0,10.0,63,0.00,,,0.00,,2013-01-07 00:32:00,
2013-01-06 17:43:00,30.0,19.0,29.85,NE,40,1.0,10.0,63,0.00,,,0.00,,2013-01-07 00:43:00,
2013-01-06 17:53:00,30.0,19.0,29.85,ENE,65,0.0,7.0,63,0.00,,,0.00,,2013-01-07 00:53:00,
2013-01-06 18:02:00,30.0,19.0,29.85,ENE,65,0.0,7.0,63,0.00,,,0.00,,2013-01-07 01:02:00,
2013-01-06 18:12:00,30.0,19.0,29.85,ENE,65,0.0,7.0,63,0.00,,,0.00,,2013-01-07 01:12:00,
2013-01-06 18:22:00,29.0,19.0,29.87,East,88,1.0,8.0,65,0.00,,,0.00,,2013-01-07 01:22:00,
2013-01-06 18:32:00,29.0,19.0,29.87,East,88,1.0,8.0,65,0.00,,,0.00,,2013-01-07 01:32:00,
2013-01-06 18:43:00,29.0,19.0,29.87,East,88,1.0,8.0,65,0.00,,,0.00,,2013-01-07 01:43:00,
2013-01-06 18:52:00,29.0,19.0,29.88,ENE,62,1.0,4.0,67,0.00,,,0.00,,2013-01-07 01:52:00,
2013-01-06 19:01:00,29.0,19.0,29.88,ENE,62,1.0,4.0,67,0.00,,,0.00,,2013-01-07 02:01:00,
2013-01-06 19:12:00,29.0,19.0,29.88,ENE,62,1.0,4.0,67,0.00,,,0.00,,2013-01-07 02:12:00,
2013-01-06 19:22:00,29.0,19.0,29.87,ENE,78,0.0,4.0,67,0.00,,,0.00,,2013-01-07 02:22:00,
2013-01-06 19:32:00,29.0,19.0,29.87,ENE,78,0.0,4.0,67,0.00,,,0.00,,2013-01-07 02:32:00,
2013-01-06 19:42:00,29.0,19.0,29.87,ENE,78,0.0,4.0,67,0.00,,,0.00,,2013-01-07 02:42:00,
2013-01-06 19:53:00,29.0,19.0,29.85,East,93,0.0,5.0,66,0.00,,,0.00,,2013-01-07 02:53:00,
2013-01-06 20:02:00,29.0,19.0,29.85,East,93,0.0,5.0,66,0.00,,,0.00,,2013-01-07 03:02:00,
2013-01-06 20:12:00,29.0,19.0,29.85,East,93,0.0,5.0,66,0.00,,,0.00,,2013-01-07 03:12:00,
2013-01-06 20:22:00,30.0,20.0,29.85,NNE,18,0.0,2.0,66,0.00,,,0.00,,2013-01-07 03:22:00,
2013-01-06 20:32:00,30.0,20.0,29.85,NNE,18,0.0,2.0,66,0.00,,,0.00,,2013-01-07 03:32:00,
2013-01-06 20:43:00,30.0,20.0,29.85,NNE,18,0.0,2.0,66,0.00,,,0.00,,2013-01-07 03:43:00,
2013-01-06 20:52:00,30.0,20.0,29.85,NNW,333,2.0,4.0,66,0.00,,,0.00,,2013-01-07 03:52:00,
2013-01-06 21:02:00,30.0,20.0,29.85,NNW,333,2.0,4.0,66,0.00,,,0.00,,2013-01-07 04:02:00,
2013-01-06 21:12:00,30.0,20.0,29.85,NNW,333,2.0,4.0,66,0.00,,,0.00,,2013-01-07 04:12:00,
2013-01-06 21:22:00,30.0,21.0,29.86,ESE,104,1.0,5.0,68,0.00,,,0.00,,2013-01-07 04:22:00,
2013-01-06 21:32:00,30.0,21.0,29.86,ESE,104,1.0,5.0,68,0.00,,,0.00,,2013-01-07 04:32:00,
2013-01-06 21:42:00,30.0,21.0,29.86,ESE,104,1.0,5.0,68,0.00,,,0.00,,2013-01-07 04:42:00,
2013-01-06 21:52:00,30.0,21.0,29.87,SE,138,0.0,5.0,68,0.00,,,0.00,,2013-01-07 04:52:00,
2013-01-06 22:02:00,30.0,21.0,29.87,SE,138,0.0,5.0,68,0.00,,,0.00,,2013-01-07 05:02:00,
2013-01-06 22:12:00,30.0,21.0,29.87,SE,138,0.0,5.0,68,0.00,,,0.00,,2013-01-07 05:12:00,
2013-01-06 22:22:00,30.0,20.0,29.87,NE,42,1.0,3.0,67,0.00,,,0.00,,2013-01-07 05:22:00,
2013-01-06 22:32:00,30.0,20.0,29.87,NE,42,1.0,3.0,67,0.00,,,0.00,,2013-01-07 05:32:00,
2013-01-06 22:43:00,30.0,20.0,29.87,NE,42,1.0,3.0,67,0.00,,,0.00,,2013-01-07 05:43:00,
2013-01-06 22:52:00,30.0,23.0,29.86,NE,38,0.0,5.0,74,0.00,,,0.00,,2013-01-07 05:52:00,
2013-01-06 23:02:00,30.0,23.0,29.86,NE,38,0.0,5.0,74,0.00,,,0.00,,2013-01-07 06:02:00,
2013-01-06 23:12:00,30.0,23.0,29.86,NE,38,0.0,5.0,74,0.00,,,0.00,,2013-01-07 06:12:00,
2013-01-06 23:22:00,29.0,22.0,29.86,SE,146,1.0,5.0,76,0.00,,,0.00,,2013-01-07 06:22:00,
2013-01-06 23:32:00,29.0,22.0,29.86,SE,146,1.0,5.0,76,0.00,,,0.00,,2013-01-07 06:32:00,
2013-01-06 23:42:00,29.0,22.0,29.86,SE,146,1.0,5.0,76,0.00,,,0.00,,2013-01-07 06:42:00,
2013-01-06 23:52:00,29.0,22.0,29.86,ESE,115,0.0,4.0,75,0.00,,,0.00,,2013-01-07 06:52:00,